Overview Statistics Trail Chart Weather Telemetry Raw packets
 

This is the latest recevied weather packets stored in our database for station/object W6MAF. If no packets are shown the sender has not sent any weather packets the latest 10 day(s).

<< 61 62 63 64 65 66 67 >>
Time Temp. Humidity Pressure Rain* Wind** Luminosity Snow
1788231250 20° C 30% - 0 mm 5.81 m/s, 159° - -
1788230952 20.56° C 28% - 0 mm 6.71 m/s, 138° - -
1788230655 20.56° C 28% - 0 mm 6.71 m/s, 148° - -
1788230357 20.56° C 26% - 0 mm 7.15 m/s, 146° - -
1788229761 21.67° C 24% - 0 mm 5.81 m/s, 172° - -
1788229460 21.67° C 21% - 0 mm 5.36 m/s, 158° - -
1788229163 22.22° C 16% - 0 mm 7.15 m/s, 166° - -
1788228865 22.78° C 12% - 0 mm 5.36 m/s, 176° - -
1788228567 23.33° C 6% - 0 mm 5.81 m/s, 173° - -
1788228269 23.33° C 5% - 0 mm 6.26 m/s, 183° - -
1788227972 23.89° C 5% - 0 mm 7.15 m/s, 170° - -
1788227671 23.89° C 5% - 0 mm 8.49 m/s, 190° - -
1788227373 23.89° C 5% - 0 mm 7.15 m/s, 177° - -
1788227075 23.89° C 5% - 0 mm 6.26 m/s, 174° - -
1788226778 23.89° C 5% - 0 mm 6.71 m/s, 145° - -
1788226480 24.44° C 4% - 0 mm 6.26 m/s, 158° - -
1788226182 24.44° C 5% - 0 mm 5.81 m/s, 165° - -
1788225881 24.44° C 5% - 0 mm 7.15 m/s, 200° - -
1788225584 25° C 4% - 0 mm 6.26 m/s, 179° - -
1788225286 25° C 4% - 0 mm 6.71 m/s, 170° - -
1788224988 25° C 4% - 0 mm 6.71 m/s, 162° - -
1788224691 25° C 4% - 0 mm 6.71 m/s, 183° - -
1788224690 25° C 4% - 0 mm 6.71 m/s, 183° - -
1788224392 25° C 4% - 0 mm 4.47 m/s, 179° - -
1788224090 25.56° C 4% - 0 mm 8.05 m/s, 184° - -

* Rain latest hour (hover to see other rain measurements)
** Current wind speed in m/s (hover to see current wind gust speed)